sat.trackr.live / text

‹ back to catalog

STARLINK-37143

NORAD 68336 · 2026-059R

PAYLOAD ACTIVE UNKNOWN

§ Identity

Operator
Country
US
Launch date
2026-03-22
Launch site
AFETR
Launch vehicle
Mass (kg)
RCS (m²)

Purposes: comms

External: N2YO · Heavens-Above · Gunter

§ Orbital elements

Epoch: 2026-09-20T04:54:48.011040Z

Period
93.85 min
Inclination
53.1556°
Eccentricity
0.0001487
Mean motion
15.34415979 rev/d
Perigee alt
461.6 km
Apogee alt
463.7 km
Semi-major
6,840.8 km
B*
7.6652e-4
RAAN
162.8555°
Arg perigee
48.2407°
Mean anomaly
311.8722°
Rev number
2,798

§ Raw data

STARLINK-371431 68336U 26059R   26263.20472235  .00025624  00000+0  76652-3 0  99992 68336  53.1556 162.8555 0001487  48.2407 311.8722 15.34415979 27988

JSON: /api/v1/satellites/68336 · /tle

For live sub-satellite position, see the globe view (requires WebGL).

§ Visibility from observer

Set your observer location to see the next 7 days of passes ≥ 10°. The values pass through the URL so the page stays shareable.

No JS? Fill the form by hand. The geolocation button needs JavaScript.